Find Starlink 35078

NORAD ID: 65523 Int'l Des: 2025-200 Owner: SPXS Country: US Constellation: starlink operational
LEOCIRCULARRETROGRADESSO

Live Position

Loading 3D Globe...

About Starlink 35078

Description loading...

Upcoming Passes

Passes for default location (London). Set your location on the main map for personalized predictions.

Altitude History

Loading altitude history...

Two-Line Element Set

1 65523U 25200D 26104.47032168 .00004913 00000-0 34435-3 0 9993
2 65523 97.6035 175.0500 0000945 133.3226 226.8080 15.05661458 34519
Epoch: Apr 14, 2026 • Age: 7 hours

Current Status

Altitude 552.6 km
Velocity 7.59 km/s
Sub-Earth Point -3.43°S, 125.24°W
Launch Date Sep 6, 2025
Age 0.6 years
Type internet

Technical Details

Classification Payload
Mass 575.00 kg
Dry Mass 530.00 kg
Total Mass 575.00 kg
Length 0.30 m
Diameter 4.10 m
Span 29.00 m
Shape Box + pan
Manufacturer SPXS
Bus Type Starlink V2MO
Phase Status In Orbit
Owner/State SPXS/US

Most Searched